User: anonymous   Login
Location: Unspecified
(0.0000°N, 0.0000°E)
Time: 10:46:54
(UTC+00:00)
Language:

AO-27 - Orbit

View from above orbital plane
View from above orbital plane
View from above satellite
View from above satellite

Ground track
Ground track

The orbit data is extracted from the following two-line orbital elements,

1 22825U 93061C   22271.07686992  .00000069  00000-0  44482-4 0  9990
2 22825  98.8795 304.2475 0009470 110.5954 249.6244 14.30193716512821
Epoch (UTC): 28 September 2022 01:50:41
Eccentricity: 0.0009470
inclination: 98.8795°
perigee height: 784 km
apogee height: 798 km
right ascension of ascending node: 304.2475°
argument of perigee: 110.5954°
revolutions per day: 14.30193716
mean anomaly at epoch: 249.6244°
orbit number at epoch: 51282

The dashed part of the orbit path shows where the satellite is in the earth's shadow,  

DLR